Flag for Congo Weather past 2 weeks in Brazzaville, Congo

Now
66 °F

Clear.


Feels Like: 66 °F
Forecast: 67 / 87 °F
Wind: 3 mph from West

Location: Brazzaville / Maya-Maya

Current Time: Jul 10, 2014 at 7:44:30 AM

Latest Report: Jul 10, 2014 at 7:00 AM


Visibility: 5 mi

Pressure: 30.07 "Hg

Humidity: 83%

Dew point: 61 °F

Location of BrazzavilleLocation

Historic Weather in Brazzaville — Graph

°F

Brazzaville temperature yesterday

Maximum temperature yesterday: 82 °F (at 3:00 PM)
Minimum temperature yesterday: 64 °F (at 2:00 AM)
Average temperature yesterday: 73 °F

Past Weeks' High & Low Weather Summary

 TemperatureHumidityPressure
High84 °F (Jun 26, 5:00 PM)94% (Jun 26, 6:00 AM)30.12 "Hg (Jun 26, 6:00 AM)
Low63 °F (Jul 7, 7:00 AM)55% (Jul 9, 3:00 PM)29.86 "Hg (Jul 1, 5:00 PM)
Average73 °F80%30.00 "Hg
* Reported Jun 25 6:00 AM — Jul 10 6:00 AM, Brazzaville, Weather by CustomWeather, © 2014

Note: Actual official high and low records may vary slightly from our data, if they occured in-between our weather recording intervals... More about our weather records

Advertising

Brazzaville weather history for previous 24 hours

 ConditionsComfort  
Time TempWeatherWind HumidityBarometerVisibility
6:00 AM
Jul 10
68 °FClear.2 mph78%30.07 "Hg5 mi
5:00 AM70 °FClear.2 mph78%30.04 "Hg5 mi
4:00 AM70 °FClear.2 mph78%30.04 "Hg5 mi
3:00 AM68 °FClear.3 mph83%30.01 "Hg5 mi
2:00 AM70 °FClear.3 mph78%30.04 "Hg5 mi
1:00 AM70 °FClear.5 mph78%30.04 "Hg5 mi
12:00 AM73 °FClear.2 mph69%30.04 "Hg5 mi
11:00 PM
Jul 9
73 °FClear.3 mph69%30.07 "Hg4 mi
10:00 PM73 °FClear.3 mph69%30.07 "Hg4 mi
9:00 PM75 °FClear.2 mph65%30.04 "Hg4 mi
8:00 PM77 °FClear.3 mph65%30.01 "Hg4 mi
7:00 PM79 °FClear.3 mph61%30.01 "Hg4 mi
6:00 PM79 °FClear.5 mph74%29.98 "Hg4 mi
5:00 PM81 °FClear.7 mph58%29.98 "Hg5 mi
4:00 PM82 °FClear.6 mph55%29.95 "Hg5 mi
3:00 PM82 °FClear.7 mph55%29.95 "Hg5 mi
1:00 PM79 °FPassing clouds.5 mph58%30.01 "Hg4 mi
9:00 AM70 °FPassing clouds.7 mph78%30.12 "Hg4 mi
8:00 AM66 °FScattered clouds.6 mph88%30.12 "Hg4 mi
7:00 AM64 °FPartly sunny.3 mph88%30.12 "Hg5 mi
Weather by CustomWeather, © 2014

See weather overviewHow to use our weather pages